Weather in Vardoe

Norway     70°22′27″N   31°06′02″E
temp.,
°C
wind,
m/s
gust,
m/s
humid.,
%
clouds,
%
prec.,
mm/h
press.,
hPa
HPBL,
m
24 july, sat
sat2423:00+8nw141878100 0.0 10031192
02:00+8nw151979100 0.0 10021096
05:00+8nw14207991 0.0 10011146
08:00+8nw14197773 0.0 10021157
11:00+9nw12177780 0.0 10021207
14:00+10nw11157430 0.1 1003915
17:00+9nw10147653 0.0 10041034
20:00+8nw111579100 0.1 10051094
25 july, sun
sun2523:00+8nw11158195 0.1 10061132
02:00+8nw101482100 0.1 10071113
05:00+8nw9128299 0.1 10091054
08:00+8nw9117793 0.2 1010986
11:00+9nw91069100 0.0 10111214
14:00+10nnw896736 0.0 1012797
17:00+9nnw897066 0.0 10131029
20:00+8nnw8107272 0.0 10141015
26 july, mon
mon2623:00+7nw8107262 0.0 1015910
02:00+7nnw8107335 0.0 1016826
05:00+8nnw8107687 0.0 1017871
08:00+8nnw8973100 0.0 1018757
11:00+10nnw466928 0.0 1019448
14:00+10nne23715 0.0 1020272
17:00+9n34755 0.0 1021245
20:00+9ne337926 0.0 1021206
27 july, tue
tue2723:00+8ene018153 0.0 102084
02:00+9s1278100 0.0 102095
05:00+9s227990 0.0 101899
08:00+10s337718 0.0 1016103
11:00+11sse337723 0.0 1015111
14:00+12ene4478100 0.0 1013184
17:00+12nne69832 0.0 1013185
20:00+10nnw913822 0.0 1012475
28 july, wed
wed2823:00+9nnw9117972 0.0 1013738
02:00+9nnw697778 0.0 1013875
05:00+9n6785100 0.1 1012580
08:00+9n678482 0.1 1012673
11:00+8n678073 0.0 1012746
14:00+9n777880 0.1 1012777
17:00+8n777427 0.0 1011863
20:00+7nnw787845 0.1 1010675